Location: Newark
(55.7083°N, 13.1992°E)
Time: 14:44:44
(UTC+00:00)

Transit 4A - Pass Details

Date: 23 February 2020
Orbit: 871 x 973 km, 66.8° (Epoch: 08 April)

Event Time Altitude Azimuth Distance (km) Brightness Sun altitude
Exits shadow 03:38:51 19° 319° (NW) 1,974 9.4 -22.5°
Maximum altitude 03:41:47 28° 1° (N) 1,596 9.3 -22.1°
Drops below altitude 10° 03:46:45 10° 59° (ENE) 2,536 11.2 -21.4°
Sets 03:49:38 0° 72° (ENE) 3,482 12.5 -21.0°
